Flag for Honduras Weather past 2 weeks in La Ceiba, Honduras

Now
84 °F

Broken clouds.


Feels Like: 90 °F
Forecast: 71 / 85 °F
Wind: 16 mph from Northeast

Location: La Ceiba Airport

Current Time: Mar 1, 2015 at 3:40:35 PM

Latest Report: Mar 1, 2015 at 2:00 PM


Visibility: N/A

Pressure: 30.01 "Hg

Humidity: 66%

Dew point: 72 °F

Location of La CeibaLocation

Historic Weather in La Ceiba — Graph

°F

La Ceiba temperature yesterday

Maximum temperature yesterday: 86 °F (at 1:00 PM)
Minimum temperature yesterday: 68 °F (at 6:00 AM)
Average temperature yesterday: 78 °F

Past Weeks' High & Low Weather Summary

 TemperatureHumidityPressure
High86 °F (Feb 26, 10:00 AM)100% (Feb 15, 6:00 AM)30.21 "Hg (Feb 15, 6:00 AM)
Low61 °F (Feb 16, 6:00 AM)59% (Feb 28, 1:00 PM)29.77 "Hg (Feb 26, 12:00 AM)
Average76 °F81%29.99 "Hg
* Reported Feb 14 2:00 PM — Mar 1 2:00 PM, La Ceiba, Weather by CustomWeather, © 2015

Note: Actual official high and low records may vary slightly from our data, if they occured in-between our weather recording intervals... More about our weather records

Advertising

La Ceiba weather history for previous 24 hours

 ConditionsComfort  
Time TempWeatherWind HumidityBarometerVisibility
2:00 PM
Sun, Mar 1
84 °FBroken clouds.16 mph66%30.01 "HgN/A
1:00 PM84 °FBroken clouds.16 mph66%30.04 "HgN/A
12:00 PM84 °FScattered clouds.16 mph66%30.04 "HgN/A
11:00 AM84 °FPassing clouds.15 mph66%30.07 "HgN/A
10:00 AM84 °FPassing clouds.10 mph70%30.07 "HgN/A
9:00 AM82 °FPassing clouds.No wind70%30.07 "HgN/A
8:00 AM81 °FPassing clouds.7 mph74%30.07 "HgN/A
7:00 AM73 °FPassing clouds.No wind89%30.04 "HgN/A
6:00 AM72 °FPassing clouds.2 mph94%30.01 "HgN/A
3:00 AM73 °FPassing clouds.2 mph89%29.98 "HgN/A
1:00 AM75 °FPassing clouds.3 mph89%30.01 "HgN/A
12:00 AM75 °FPassing clouds.3 mph89%30.04 "HgN/A
11:00 PM
Sat, Feb 28
75 °FPassing clouds.2 mph89%30.04 "HgN/A
10:00 PM77 °FPartly cloudy.3 mph83%30.04 "HgN/A
9:00 PM77 °FPartly cloudy.7 mph89%30.01 "HgN/A
8:00 PM79 °FPartly cloudy.6 mph84%30.01 "HgN/A
7:00 PM79 °FPassing clouds.10 mph84%29.98 "HgN/A
6:00 PM79 °FPassing clouds.14 mph84%29.98 "HgN/A
5:00 PM82 °FPassing clouds.17 mph74%29.95 "HgN/A
4:00 PM84 °FPassing clouds.18 mph66%29.95 "HgN/A
3:00 PM84 °FPassing clouds.15 mph70%29.95 "HgN/A
Weather by CustomWeather, © 2015

See weather overviewHow to use our weather pages